Terminal Aerodrome Forecast
Issued by NWS Louisville, KY

Home | Current Version | Previous Version | Text Only | Print | Product List | Glossary On
Versions: 1 2 3 4 5 6 7 8 9 10 11 12 13 14 15 16 17 18 19 20 21 22 23 24 25 26 27
000
FTUS43 KLMK 181723
TAFSDF
TAF
KSDF 181723Z 1818/1924 21008KT P6SM VCSH SCT070 BKN120
      TEMPO 1819/1821 5SM -SHRA BKN030
     FM182100 22008KT 5SM -SHRA BR OVC025
     FM190000 VRB04KT 4SM BR OVC015
      TEMPO 1900/1903 2SM BR BKN010
     FM190900 24004KT 3SM BR OVC010
     FM191600 23003KT P6SM SCT015 SCT250=

USA.gov is the U.S. government's official web portal to all federal, state and local government web resources and services.